Regional Weather Roundup
Issued by NWS

Home | Current Version | Previous Version | Graphics & Text | Print | Product List | Glossary On
Versions: 1 2 3 4 5 6 7 8 9 10 11 12 13 14 15 16 17 18 19 20 21 22 23 24 25 26 27 28 29 30 31 32 33 34 35 36 37 38 39 40 41 42 43 44 45 46 47 48 49 50
000
ASUS43 KIND 280659
RWRIN

WEATHER ROUNDUP FOR INDIANA
NATIONAL WEATHER SERVICE INDIANAPOLIS IN
300 AM EDT FRI APR 28 2017

NOTE: "FAIR" INDICATES FEW OR NO CLOUDS BELOW 12,000 FEET WITH NO
SIGNIFICANT WEATHER AND/OR OBSTRUCTIONS TO VISIBILITY.

* - STATION DOES NOT REPORT WEATHER SUCH AS PRECIPITATION OR FOG.

+ - STATION NOT QUALITY CONTROLLED BY THE NATIONAL WEATHER SERVICE.
    USE DATA WITH CAUTION...ESPECIALLY DEWPOINT AND RELATIVE
    HUMIDITY OBSERVATIONS.

INZ001>003-010>013-019-020-280800-
NORTHWEST INDIANA

CITY           SKY/WX    TMP DP  RH WIND       PRES   REMARKS
MONTICELLO +   MOCLDY    45  39  81 CALM      29.91F
RENSSELAER +   PTCLDY    45  41  87 S5        29.90F

$$

LMZ046-743>745-280800-
SOUTHERN LAKE MICHIGAN

STATION/POSITION TIME  TEMP    WIND        PRES    WAVE
                       AIR SEA DIR/SP/G            HT
                 (UTC) (F)     (DEG/KT/KT) (MB)    (FT)
BURNS HARBOR     0640   45     240/  5/  7 1012.9R
MICHIGAN CITY    0630   45     180/  5/  5   N/A
5NW MICH CITY    0650   46 47                N/A     2

$$

INZ004-005-014>016-021>024-280800-
NORTH CENTRAL INDIANA

CITY           SKY/WX    TMP DP  RH WIND       PRES   REMARKS
GOSHEN         CLEAR     44  36  73 S7        29.90S
SOUTH BEND     CLOUDY    42  37  82 SW3       29.90R

$$

INZ006>009-017-018-025>027-280800-
NORTHEAST INDIANA

CITY           SKY/WX    TMP DP  RH WIND       PRES   REMARKS
ANGOLA *+      CLEAR     46  37  71 W7        29.90S
FORT WAYNE     MOCLDY    47  39  74 W8        29.93S
KENDALLVILLE + CLEAR     44  38  79 SW7       29.91S

$$

INZ028-029-035-036-043>045-051>053-280800-
WEST CENTRAL INDIANA

CITY           SKY/WX    TMP DP  RH WIND       PRES   REMARKS
GREENCASTLE +  PTCLDY    43  41  93 CALM      29.94F
LAFAYETTE      PTCLDY    45  41  86 CALM      29.92F
TERRE HAUTE    MOCLDY    46  44  93 NE7       29.92F

$$

INZ030>032-037>040-046>048-054>057-064-065-280800-
CENTRAL INDIANA

CITY           SKY/WX    TMP DP  RH WIND       PRES   REMARKS
INDIANAPOLIS   MOCLDY    47  42  83 CALM      29.94R
-EAGLE CREEK   PTCLDY    49  43  80 N5        29.94R
KOKOMO +       CLOUDY    47  42  83 W3        29.94S
SHELBYVILLE    PTCLDY    50  44  80 W3        29.95R

$$

INZ033-034-041-042-049-050-058-059-280800-
EAST CENTRAL INDIANA

CITY           SKY/WX    TMP DP  RH WIND       PRES   REMARKS
MUNCIE         PTCLDY    47  42  83 SW3       29.95R
RICHMOND +     PTCLDY    45  43  93 NW8       29.94R

$$

INZ060-061-067>069-081>083-085>088-280800-
SOUTHWEST INDIANA

CITY           SKY/WX    TMP DP  RH WIND       PRES   REMARKS
EVANSVILLE     CLEAR     48  45  89 NE5       29.92R
HUNTINGBURG *+ PTCLDY    49  47  93 CALM      29.93F

$$

INZ062-063-066-070>080-084-089>092-280800-
SOUTH CENTRAL AND SOUTHEAST INDIANA

CITY           SKY/WX    TMP DP  RH WIND       PRES   REMARKS
BLOOMINGTON    MOCLDY    44  41  89 CALM      29.94S
MADISON *+     CLEAR     46  46 100 CALM      29.97R
SEYMOUR +      CLOUDY    45  45 100 CALM      29.95S

$$




USA.gov is the U.S. government's official web portal to all federal, state and local government web resources and services.